SL-16 DEB, 22376

Orbit data source: Space-Track

SL-16 DEB, 22376 is space debris in LEO originally from a launch on Fri, 25 Dec 1992 UTC launched from the Tyuratam Missile And Space Complex (TTMTR). Debris objects in space refer to the collection of defunct objects orbiting the Earth. Examples of debris include non-operational satellites, rocket bodies, and fragments generated from explosions, collisions, or faulty payload assembly.

Loading next visibility...
Identifier
22376, 1992-093BR
Orbit
LEO
Country
Flag of CISCIS
Related business
Manufacturer
Unknown
Mission
Spacecraft
Bus & Motor
Unknown
Mass
Unknown
Launch date (UTC)
1992-12-25 (33 years ago)
Launch vehicle
Unknown
Launch site
Tyuratam Missile And Space Complex (TTMTR)
Object type
Payload
Rocket body
Debris
Shape & HBR
Unknown shape, 0.1 m
Radar Cross Section
Small (<0.1 m²)

Expand to show TLE details & history
Last TLE update: 10 hours ago

TLE from 10 hours ago
0 SL-16 DEB
1 22376U 92093BR  26127.05579632  .00001686  00000-0  65378-3 0  9991
2 22376  70.8851 117.0220 0051329 103.9982 314.7017 14.30703049720111
Epoch: 2026-05-07T01:20Z
TLE epoch observation values (Epoch: 2026-05-07T01:20:20.802Z)
Latitude
53.60056°
Longitude
-100.09468°
Altitude
771.835 km
Speed
7.487 km/s
True Right ascension
09h 39m 35s
True Declination
53° 26' 11"
Sunlit
Object was in daylight at epoch
Visualization orbit readout
Latitude
Unknown
Longitude
Unknown
Altitude
Unknown
Speed
Unknown
Apparent Right ascension
Unknown
Apparent Declination
Unknown
Sunlit
N/A
Visualization observer readout
Local Sidereal Time
19:06:35
Azimuth
Unknown
Elevation
Unknown
Doppler factor
Unknown
Orbital elements
Apogee altitude
824.082 km
Perigee altitude
750.523 km
Semi-major axis
7,165.44 km
Eccentricity
0.00513
Inclination
70.8851°
RAAN
117.022°
Arg. of periapsis
103.9982°
True anomaly
314.28174°
Mean anomaly
314.7017°
Eccentric anomaly
314.49191°
Mean motion
3.57832 °/min
Orbital period
100.61 mins
BSTAR
0.00065378
Loading maneuver chart data...
Computing Atmospheric mass density...
Loading historical data...
Loading historical data...
Loading historical data...
Loading historical data...
Loading historical data...
Loading historical data...
Loading historical data...

Documentation

Showing up to 5 results
|